Wetterdaten am Flugplatz MSG Übersee

alte Datensätze gelöscht
25 aktuelle Wetterdateneinträge gefunden

Datum/Uhrzeit   Windrichtung/Grad    Geschw./kmh    Temp./C°    Luftdruck/mbar    Spannung/Volt   
2026-09-02 00:06 NW/312 1 17 1025 12,33
2026-09-02 00:16 NW/312 0 17 1025 12,38
2026-09-02 00:26 NW/312 2 17 1025 12,40
2026-09-02 00:36 NW/312 1 17 1025 12,43
2026-09-02 00:46 NW/312 5 16 1025 12,29
2026-09-02 00:56 NW/312 3 16 1025 12,35
2026-09-02 01:06 NW/312 0 16 1025 12,39
2026-09-02 01:16 NW/312 1 16 1025 12,45
2026-09-02 01:26 NW/312 1 16 1025 12,13
2026-09-02 01:36 NW/312 0 16 1025 12,30
2026-09-02 01:46 NW/312 0 16 1025 12,33
2026-09-02 01:56 NW/312 0 16 1025 12,36
2026-09-02 02:06 NW/312 0 15 1025 12,39
2026-09-02 02:16 NW/312 1 15 1025 12,27
2026-09-02 02:26 NW/312 1 15 1025 12,32
2026-09-02 02:37 NW/312 1 15 1025 12,35
2026-09-02 02:47 NW/312 3 15 1025 12,43
2026-09-02 02:57 NW/312 3 15 1025 12,27
2026-09-02 03:07 NW/312 2 15 1025 12,30
2026-09-02 03:17 NW/312 2 15 1025 12,33
2026-09-02 03:27 SW/232 7 15 1025 12,36
2026-09-02 03:37 S/180 8 15 1025 12,24
2026-09-02 03:47 NW/298 7 15 1025 12,27
2026-09-02 03:57 NW/308 4 15 1025 12,30
2026-09-02 04:07 NW/310 2 15 1024 12,32